Manteo, NC

8:20 AM EDT on April 23, 2018 (GMT -0400)
Dare County Regional

Weather History for KMQI - August, 2013

Change the Weather History Date:

Sunday, August 18, 2013

  Actual Average Record
Temperature  
Mean Temperature 78 °F -  
Max Temperature 83 °F 82 °F 93 °F (1968)
Min Temperature 72 °F 72 °F 57 °F (1979)
Cooling Degree Days 12    
Growing Degree Days 28 (Base 50)    
Moisture  
Dew Point 71 °F    
Average Humidity 86    
Maximum Humidity 99    
Minimum Humidity 68    
Precipitation  
Precipitation 0.11 in - - ()
Sea Level Pressure  
Sea Level Pressure 30.13 in    
Wind  
Wind Speed 7 mph (NW)    
Max Wind Speed 15 mph    
Max Gust Speed 20 mph    
Visibility 10 miles    
Events Rain    
Averages and records for this station are not official NWS values.
T = Trace of Precipitation, MM = Missing Value Source: NWS Daily Summary

Daily Weather History Graph

Daily Weather History Graph

Search for Another Location

Airport or City:

Astronomy

Aug. 18, 2013 Rise Set
Actual Time 6:23 AM EDT 7:48 PM EDT
Civil Twilight 5:56 AM EDT 8:15 PM EDT
Nautical Twilight 5:24 AM EDT 8:47 PM EDT
Astronomical Twilight 4:50 AM EDT 9:21 PM EDT
Moon 5:51 PM EDT (8/18) 3:33 AM EDT (8/18)
Length of Visible Light 14h 18m
Length of Day
13h 24m
Waxing Gibbous, 92% of the Moon is Illuminated
Aug 18
Waxing Gibbous
Aug 20
Full
Aug 28
Last Quarter
Sep 5
New
Sep 12
First Quarter

Hourly Weather History & Observations

Time (EDT) Temp. Heat Index Dew Point Humidity Pressure Visibility Wind Dir Wind Speed Gust Speed Precip Events Conditions
12:15 AM 72.3 °F - 71.2 °F 96% 30.10 in 4.0 mi Calm Calm - N/A Rain Heavy Rain
12:35 AM 72.0 °F - 71.4 °F 98% 30.10 in 5.0 mi ENE 4.6 mph - N/A Rain Rain
12:55 AM 72.5 °F - 71.8 °F 98% 30.09 in 10.0 mi East 5.8 mph - 0.01 in   Overcast
1:15 AM 73.0 °F - 72.5 °F 98% 30.08 in 10.0 mi ESE 5.8 mph - N/A   Mostly Cloudy
1:35 AM 73.4 °F - 73.0 °F 99% 30.08 in - ESE 3.5 mph - 0.01 in   Overcast
1:55 AM 73.6 °F - 73.4 °F 99% 30.07 in - SE 6.9 mph - 0.01 in   Overcast
2:15 AM 73.6 °F - 73.4 °F 99% 30.06 in - SE 6.9 mph - N/A   Unknown
2:35 AM 73.8 °F - 73.2 °F 98% 30.06 in - East 3.5 mph - 0.01 in   Overcast
2:55 AM 74.8 °F - 73.9 °F 97% 30.05 in - SW 5.8 mph - 0.01 in   Overcast
3:15 AM 75.2 °F - 74.3 °F 97% 30.05 in - SW 10.4 mph - N/A   Unknown
3:35 AM 74.8 °F - 73.8 °F 96% 30.06 in - WSW 12.7 mph - 0.01 in   Unknown
3:55 AM 74.1 °F - 72.9 °F 96% 30.06 in - West 15.0 mph 19.6 mph 0.01 in   Overcast
4:15 AM 73.6 °F - 72.5 °F 96% 30.07 in - West 10.4 mph - N/A   Overcast
4:35 AM 73.6 °F - 72.5 °F 96% 30.08 in - WSW 15.0 mph 18.4 mph 0.01 in   Overcast
4:55 AM 73.4 °F - 72.1 °F 96% 30.08 in - WSW 13.8 mph 19.6 mph 0.01 in   Overcast
5:15 AM 73.4 °F - 72.1 °F 96% 30.09 in - West 13.8 mph - N/A   Overcast
5:35 AM 73.4 °F - 72.1 °F 96% 30.10 in - West 11.5 mph - 0.01 in   Overcast
5:55 AM 73.4 °F - 71.6 °F 94% 30.10 in - West 12.7 mph - 0.01 in   Overcast
6:15 AM 73.0 °F - 71.2 °F 94% 30.11 in - West 13.8 mph - N/A   Overcast
6:35 AM 73.0 °F - 71.2 °F 94% 30.12 in - West 12.7 mph - N/A   Overcast
6:55 AM 72.9 °F - 71.1 °F 94% 30.12 in - West 11.5 mph - 0.01 in   Overcast
7:15 AM 72.7 °F - 71.1 °F 95% 30.13 in - West 8.1 mph - N/A   Overcast
7:35 AM 72.9 °F - 71.1 °F 94% 30.13 in - West 9.2 mph - N/A   Overcast
7:55 AM 73.0 °F - 70.9 °F 93% 30.13 in - West 9.2 mph 17.3 mph N/A   Overcast
8:15 AM 72.9 °F - 70.7 °F 93% 30.14 in - WNW 9.2 mph - 0.01 in   Overcast
8:35 AM 73.6 °F - 70.7 °F 91% 30.14 in - West 9.2 mph - 0.01 in   Overcast
8:55 AM 74.1 °F - 71.1 °F 90% 30.14 in 10.0 mi West 5.8 mph - 0.01 in   Overcast
9:15 AM 74.7 °F - 71.2 °F 89% 30.15 in 10.0 mi West 10.4 mph 16.1 mph N/A   Overcast
9:35 AM 75.7 °F - 71.6 °F 87% 30.15 in 10.0 mi West 8.1 mph - 0.01 in   Overcast
9:55 AM 76.6 °F - 71.4 °F 84% 30.15 in 10.0 mi West 10.4 mph - 0.01 in   Mostly Cloudy
10:15 AM 77.7 °F - 71.8 °F 82% 30.15 in 10.0 mi West 8.1 mph - N/A   Scattered Clouds
10:35 AM 78.8 °F - 71.8 °F 79% 30.15 in 10.0 mi WNW 9.2 mph - N/A   Scattered Clouds
10:55 AM 79.2 °F - 71.8 °F 78% 30.16 in 10.0 mi WNW 11.5 mph 16.1 mph N/A   Scattered Clouds
11:15 AM 79.0 °F - 71.4 °F 78% 30.16 in 10.0 mi WNW 6.9 mph 16.1 mph N/A   Clear
11:35 AM 79.9 °F - 71.8 °F 76% 30.16 in 10.0 mi NW 9.2 mph - 0.01 in   Clear
11:55 AM 79.9 °F - 71.2 °F 75% 30.16 in 10.0 mi WNW 11.5 mph 18.4 mph 0.01 in   Scattered Clouds
12:15 PM 79.9 °F - 71.2 °F 75% 30.16 in 10.0 mi WNW 11.5 mph 16.1 mph N/A   Scattered Clouds
12:35 PM 80.1 °F 83.6 °F 71.2 °F 74% 30.16 in 10.0 mi NW 8.1 mph - N/A   Scattered Clouds
12:55 PM 79.3 °F - 71.2 °F 76% 30.16 in 10.0 mi WNW 6.9 mph - N/A   Mostly Cloudy
1:15 PM 79.7 °F - 71.8 °F 77% 30.15 in 10.0 mi NW 6.9 mph - N/A   Mostly Cloudy
1:35 PM 79.9 °F - 71.4 °F 75% 30.15 in 10.0 mi NNW 6.9 mph - 0.01 in   Mostly Cloudy
1:55 PM 80.8 °F 84.9 °F 72.0 °F 74% 30.15 in 10.0 mi NW 8.1 mph - 0.01 in   Mostly Cloudy
2:15 PM 82.0 °F 86.7 °F 72.0 °F 71% 30.14 in 10.0 mi NW 10.4 mph - N/A   Mostly Cloudy
2:35 PM 80.6 °F 84.6 °F 71.8 °F 74% 30.14 in 10.0 mi NNW 6.9 mph - N/A   Overcast
2:55 PM 81.0 °F 84.9 °F 71.2 °F 72% 30.14 in 10.0 mi NW 6.9 mph - N/A   Overcast
3:15 PM 82.6 °F 87.1 °F 71.2 °F 68% 30.13 in 10.0 mi NW 8.1 mph - N/A   Scattered Clouds
3:35 PM 82.2 °F 86.9 °F 71.6 °F 70% 30.13 in 10.0 mi NNW 4.6 mph - N/A   Scattered Clouds
3:55 PM 82.4 °F 87.2 °F 71.6 °F 70% 30.12 in 10.0 mi NNW 6.9 mph - N/A   Mostly Cloudy
4:15 PM 83.3 °F 88.4 °F 71.8 °F 68% 30.12 in 10.0 mi NW 6.9 mph - N/A   Scattered Clouds
4:35 PM 83.5 °F 89.1 °F 72.1 °F 69% 30.11 in 10.0 mi NW 4.6 mph - N/A   Mostly Cloudy
4:55 PM 83.3 °F 88.7 °F 72.3 °F 69% 30.11 in 10.0 mi NNW 4.6 mph - N/A   Scattered Clouds
5:15 PM 83.1 °F 88.6 °F 72.3 °F 70% 30.11 in 10.0 mi NW 4.6 mph - N/A   Mostly Cloudy
5:35 PM 83.7 °F 89.2 °F 72.0 °F 68% 30.11 in 10.0 mi NW 3.5 mph - N/A   Scattered Clouds
5:55 PM 81.7 °F 86.0 °F 71.6 °F 71% 30.12 in 10.0 mi NNW 4.6 mph - N/A   Mostly Cloudy
6:15 PM 82.2 °F 86.9 °F 71.6 °F 70% 30.12 in 10.0 mi NNW 8.1 mph - N/A   Scattered Clouds
6:35 PM 80.8 °F 84.9 °F 71.8 °F 74% 30.12 in 10.0 mi NNW 5.8 mph - N/A   Scattered Clouds
6:55 PM 80.8 °F 84.9 °F 72.0 °F 74% 30.12 in 10.0 mi NNW 6.9 mph - N/A   Clear
7:15 PM 78.8 °F - 72.1 °F 80% 30.12 in 10.0 mi NE 6.9 mph - N/A   Clear
7:35 PM 74.3 °F - 71.4 °F 91% 30.13 in 10.0 mi NE 9.2 mph - N/A   Scattered Clouds
7:55 PM 73.4 °F - 70.7 °F 91% 30.14 in 10.0 mi NE 8.1 mph - N/A   Mostly Cloudy
8:15 PM 72.9 °F - 70.3 °F 92% 30.14 in 10.0 mi NE 8.1 mph - N/A   Mostly Cloudy
8:35 PM 72.5 °F - 70.0 °F 92% 30.14 in 10.0 mi NNE 11.5 mph 16.1 mph N/A   Scattered Clouds
8:55 PM 72.5 °F - 69.8 °F 91% 30.15 in 10.0 mi NE 6.9 mph - N/A   Scattered Clouds
9:15 PM 72.5 °F - 69.8 °F 91% 30.16 in 10.0 mi NE 9.2 mph - N/A   Mostly Cloudy
9:35 PM 72.5 °F - 69.8 °F 91% 30.17 in 10.0 mi NE 6.9 mph - N/A   Overcast
9:55 PM 72.5 °F - 69.3 °F 90% 30.18 in 10.0 mi NE 8.1 mph - N/A   Overcast
10:15 PM 72.1 °F - 69.1 °F 90% 30.18 in 10.0 mi NE 9.2 mph - N/A   Overcast
10:35 PM 72.0 °F - 68.9 °F 90% 30.18 in 10.0 mi NE 6.9 mph - N/A   Overcast
10:55 PM 72.5 °F - 69.1 °F 89% 30.18 in 10.0 mi NE 4.6 mph - N/A   Overcast
11:15 PM 72.5 °F - 69.3 °F 90% 30.18 in 10.0 mi NE 6.9 mph - N/A   Overcast
11:35 PM 72.1 °F - 68.9 °F 89% 30.18 in 10.0 mi NE 8.1 mph - N/A   Overcast
11:55 PM 72.1 °F - 68.9 °F 89% 30.18 in 10.0 mi NE 8.1 mph - N/A   Overcast